Regional Weather Roundup
Issued by NWS

Home | Current Version | Previous Version | Graphics & Text | Print | Product List | Glossary On
Versions: 1 2 3 4 5 6 7 8 9 10 11 12 13 14 15 16 17 18 19 20 21 22 23 24 25 26 27 28 29 30 31 32 33 34 35 36 37 38 39 40 41 42 43 44 45 46 47 48 49 50
000
ASUS43 KFSD 281410
RWRSD

WEATHER ROUNDUP FOR SOUTH DAKOTA
NATIONAL WEATHER SERVICE SIOUX FALLS SD
800 AM CST SAT FEB 28 2015

NOTE: "FAIR" INDICATES FEW OR NO CLOUDS BELOW 12,000 FEET WITH NO
SIGNIFICANT WEATHER AND/OR OBSTRUCTIONS TO VISIBILITY.


SDZ001>005-009-010-012>017-281500-
NORTHWEST AND NORTH CENTRAL SOUTH DAKOTA

CITY           SKY/WX    TMP DP  RH WIND       PRES   REMARKS
BUFFALO          N/A      6   1  80 W9        29.99R WCI  -8
FAITH            N/A     10   4  76 NW9       30.06R WCI  -3
MOBRIDGE       CLOUDY    11   3  70 SE12      30.08S WCI  -3
$$

SDZ012>016-024>037-041>051-057-063-072>074-281500-
SOUTHWEST AND SOUTH CENTRAL SOUTH DAKOTA

CITY           SKY/WX    TMP DP  RH WIND       PRES   REMARKS
RAPID CTY ARPT CLEAR     14   5  67 N20       30.05R WCI  -3
PIERRE         CLEAR     10   4  76 S9        30.15S WCI  -3
CUSTER         CLEAR      2  -3  80 CALM      29.89R
ELLSWORTH AFB  CLEAR     14   5  67 N16       30.04S WCI  -2
PHILIP         CLEAR     11   4  73 W7        30.11R WCI   0
PINE RIDGE     CLEAR      9   3  77 SW8       30.07R WCI  -3
WINNER         FAIR      13   3  64 S21       30.17S WCI  -5
$$

SDZ004>011-016>023-039-040-281500-
NORTHEAST SOUTH DAKOTA

CITY           SKY/WX    TMP DP  RH WIND       PRES   REMARKS
ABERDEEN       PTCLDY     6  -1  73 S13       30.23F WCI -10
WATERTOWN      CLEAR      0  -5  79 S10       30.25F WCI -16
SISSETON         N/A      9   1  70 SW14G20   30.26F WCI  -7
$$

SDZ017-020-022-023-036>040-048>070-281500-
SOUTHEAST SOUTH DAKOTA

CITY           SKY/WX    TMP DP  RH WIND       PRES   REMARKS
SIOUX FALLS    PTCLDY     5  -2  72 S12       30.36F WCI -11
HURON          CLEAR      6   0  76 S10       30.27S WCI  -9
CHAMBERLAIN    CLEAR     11   4  74 S9        30.22S WCI  -2
MITCHELL       CLEAR      8   2  76 S13       30.31F WCI  -8
YANKTON        CLEAR      9   1  72 S9        30.39S WCI  -5
$$

ABBREVIATIONS USED IN REMARKS
   TC - TEMPERATURE IN CELSIUS
  WCI - WIND CHILL INDEX
   HX - HEAT INDEX
  VSB - VISIBILITY




USA.gov is the U.S. government's official web portal to all federal, state and local government web resources and services.